User: anonymous   Login
Location: Rumah Long Bangan
(2.8362°N, 113.7519°E)
Time: 23:18:21
(UTC+00:00)
Language:

Cosmos 2151 Rocket - Orbit

View from above orbital plane
View from above orbital plane
View from above satellite
View from above satellite

Ground track
Ground track

The orbit data is extracted from the following two-line orbital elements,

1 21423U 91042B   22028.42281150  .00000165  00000-0  18680-4 0  9994
2 21423  82.4944 185.4796 0018812 123.8718 236.4288 14.79871167630918
Epoch (UTC): 28 January 2022 10:08:50
Eccentricity: 0.0018812
inclination: 82.4944°
perigee height: 616 km
apogee height: 643 km
right ascension of ascending node: 185.4796°
argument of perigee: 123.8718°
revolutions per day: 14.79871167
mean anomaly at epoch: 236.4288°
orbit number at epoch: 63091

The dashed part of the orbit path shows where the satellite is in the earth's shadow,  

DLR